User: anonymous   Login
Location: �clusier
(49.9361°N, 2.7869°E)
Time: 12:43:37
(UTC+00:00)
Language:

Cosmos 389 Rocket - Orbit

View from above orbital plane
View from above orbital plane
View from above satellite
View from above satellite

Ground track
Ground track

The orbit data is extracted from the following two-line orbital elements,

1  4814U 70113B   21263.09089731  .00002046  00000-0  55245-4 0  9997
2  4814  81.1427 324.1396 0024326 125.5384 234.8129 15.36942214773143
Epoch (UTC): 20 September 2021 02:10:53
Eccentricity: 0.0024326
inclination: 81.1427°
perigee height: 438 km
apogee height: 472 km
right ascension of ascending node: 324.1396°
argument of perigee: 125.5384°
revolutions per day: 15.36942214
mean anomaly at epoch: 234.8129°
orbit number at epoch: 77314

The dashed part of the orbit path shows where the satellite is in the earth's shadow,  

DLR